| time (UTC) | temp F | wind direction | speed MPH | gust MPH | rain 1hr in | rain 24hr in | rain mn in | humidity % | barometer mb |
| 20260504234515 | 76 | 92 | 1.0 | 10.0 | 0.00 | 0.00 | 0.00 | 65 | 1015.4 |
| 20260504234008 | 76 | 71 | 4.0 | 10.0 | 0.00 | 0.00 | 0.00 | 64 | 1015.4 |
| 20260504233513 | 76 | 61 | 3.0 | 13.0 | 0.00 | 0.00 | 0.00 | 63 | 1015.3 |
| 20260504233014 | 76 | 132 | 4.0 | 15.0 | 0.00 | 0.00 | 0.00 | 62 | 1015.2 |
| 20260504232505 | 77 | 113 | 8.0 | 15.0 | 0.00 | 0.00 | 0.00 | 61 | 1015.2 |
| 20260504232004 | 77 | 121 | 6.0 | 14.0 | 0.00 | 0.00 | 0.00 | 61 | 1015.2 |
| 20260504231510 | 78 | 67 | 6.0 | 14.0 | 0.00 | 0.00 | 0.00 | 61 | 1015.3 |
| 20260504231004 | 78 | 80 | 3.0 | 14.0 | 0.00 | 0.00 | 0.00 | 61 | 1015.2 |
| 20260504230507 | 78 | 95 | 6.0 | 14.0 | 0.00 | 0.00 | 0.00 | 59 | 1015.1 |
| 20260504230016 | 79 | 69 | 5.0 | 13.0 | 0.00 | 0.00 | 0.00 | 60 | 1015.0 |
| 20260504225503 | 79 | 65 | 9.0 | 13.0 | 0.00 | 0.00 | 0.00 | 59 | 1015.0 |
| 20260504225012 | 79 | 98 | 5.0 | 12.0 | 0.00 | 0.00 | 0.00 | 59 | 1015.0 |
| 20260504224521 | 79 | 97 | 5.0 | 12.0 | 0.00 | 0.00 | 0.00 | 59 | 1015.2 |
| 20260504224012 | 79 | 59 | 6.0 | 12.0 | 0.00 | 0.00 | 0.00 | 59 | 1015.2 |
| 20260504223507 | 79 | 57 | 5.0 | 11.0 | 0.00 | 0.00 | 0.00 | 58 | 1015.2 |
| 20260504223020 | 80 | 97 | 4.0 | 11.0 | 0.00 | 0.00 | 0.00 | 57 | 1015.1 |
| 20260504222510 | 80 | 119 | 6.0 | 14.0 | 0.00 | 0.00 | 0.00 | 56 | 1015.2 |
| 20260504222003 | 80 | 94 | 6.0 | 14.0 | 0.00 | 0.00 | 0.00 | 56 | 1015.2 |
| 20260504221518 | 80 | 98 | 6.0 | 13.0 | 0.00 | 0.00 | 0.00 | 57 | 1015.1 |
| 20260504221008 | 81 | 64 | 6.0 | 13.0 | 0.00 | 0.00 | 0.00 | 56 | 1015.1 |
| 20260504220505 | 82 | 111 | 8.0 | 13.0 | 0.00 | 0.00 | 0.00 | 54 | 1015.1 |
| 20260504220016 | 83 | 88 | 6.0 | 14.0 | 0.00 | 0.00 | 0.00 | 52 | 1015.1 |
| 20260504215507 | 84 | 31 | 3.0 | 14.0 | 0.00 | 0.00 | 0.00 | 52 | 1015.1 |
| 20260504215008 | 84 | 34 | 6.0 | 16.0 | 0.00 | 0.00 | 0.00 | 52 | 1015.1 |
| 20260504213508 | 84 | 67 | 4.0 | 13.0 | 0.00 | 0.00 | 0.00 | 53 | 1015.0 |
| 20260504213023 | 83 | 23 | 7.0 | 12.0 | 0.00 | 0.00 | 0.00 | 53 | 1015.0 |
| 20260504212507 | 83 | 71 | 6.0 | 14.0 | 0.00 | 0.00 | 0.00 | 53 | 1015.0 |
| 20260504211525 | 84 | 66 | 4.0 | 16.0 | 0.00 | 0.00 | 0.00 | 52 | 1014.9 |
| 20260504211007 | 83 | 113 | 7.0 | 19.0 | 0.00 | 0.00 | 0.00 | 54 | 1015.1 |
| 20260504210507 | 83 | 83 | 8.0 | 19.0 | 0.00 | 0.00 | 0.00 | 51 | 1015.0 |
| 20260504210022 | 84 | 28 | 4.0 | 15.0 | 0.00 | 0.00 | 0.00 | 50 | 1015.0 |
| 20260504205505 | 84 | 115 | 5.0 | 13.0 | 0.00 | 0.00 | 0.00 | 51 | 1015.0 |
| 20260504205008 | 84 | 40 | 7.0 | 15.0 | 0.00 | 0.00 | 0.00 | 52 | 1015.1 |
| 20260504204516 | 83 | 98 | 8.0 | 15.0 | 0.00 | 0.00 | 0.00 | 54 | 1015.1 |
| 20260504204010 | 83 | 60 | 6.0 | 16.0 | 0.00 | 0.00 | 0.00 | 51 | 1015.1 |
| 20260504203514 | 84 | 41 | 6.0 | 16.0 | 0.00 | 0.00 | 0.00 | 52 | 1015.0 |
| 20260504203018 | 84 | 30 | 9.0 | 13.0 | 0.00 | 0.00 | 0.00 | 51 | 1015.1 |
| 20260504202513 | 84 | 63 | 5.0 | 18.0 | 0.00 | 0.00 | 0.00 | 53 | 1015.3 |
| 20260504202012 | 84 | 47 | 8.0 | 18.0 | 0.00 | 0.00 | 0.00 | 50 | 1015.2 |
| 20260504201518 | 84 | 75 | 4.0 | 13.0 | 0.00 | 0.00 | 0.00 | 51 | 1015.2 |
| 20260504200509 | 85 | 80 | 7.0 | 17.0 | 0.00 | 0.00 | 0.00 | 49 | 1015.4 |
| 20260504200025 | 86 | 64 | 8.0 | 17.0 | 0.00 | 0.00 | 0.00 | 48 | 1015.4 |
| 20260504195507 | 87 | 83 | 7.0 | 16.0 | 0.00 | 0.00 | 0.00 | 51 | 1015.3 |
| 20260504194518 | 85 | 46 | 5.0 | 16.0 | 0.00 | 0.00 | 0.00 | 49 | 1015.6 |
| 20260504194008 | 85 | 43 | 9.0 | 14.0 | 0.00 | 0.00 | 0.00 | 51 | 1015.7 |
| 20260504193508 | 84 | 49 | 5.0 | 15.0 | 0.00 | 0.00 | 0.00 | 52 | 1015.7 |
| 20260504193019 | 84 | 80 | 5.0 | 15.0 | 0.00 | 0.00 | 0.00 | 51 | 1015.8 |
| 20260504192508 | 85 | 34 | 6.0 | 13.0 | 0.00 | 0.00 | 0.00 | 49 | 1015.7 |
| 20260504191526 | 85 | 103 | 8.0 | 13.0 | 0.00 | 0.00 | 0.00 | 48 | 1015.8 |
| 20260504191007 | 85 | 103 | 6.0 | 12.0 | 0.00 | 0.00 | 0.00 | 48 | 1015.9 |
| 20260504190511 | 85 | 105 | 5.0 | 14.0 | 0.00 | 0.00 | 0.00 | 49 | 1015.9 |
| 20260504185509 | 87 | 85 | 4.0 | 12.0 | 0.00 | 0.00 | 0.00 | 50 | 1016.2 |
| 20260504184522 | 86 | 103 | 5.0 | 12.0 | 0.00 | 0.00 | 0.00 | 51 | 1016.2 |
| 20260504183504 | 85 | 360 | 6.0 | 15.0 | 0.00 | 0.00 | 0.00 | 50 | 1016.5 |
| 20260504183017 | 85 | 78 | 7.0 | 15.0 | 0.00 | 0.00 | 0.00 | 50 | 1016.5 |
| 20260504182508 | 86 | 53 | 7.0 | 13.0 | 0.00 | 0.00 | 0.00 | 48 | 1016.6 |
| 20260504182011 | 85 | 50 | 4.0 | 13.0 | 0.00 | 0.00 | 0.00 | 49 | 1016.6 |
| 20260504181522 | 85 | 40 | 5.0 | 15.0 | 0.00 | 0.00 | 0.00 | 47 | 1016.7 |
| 20260504180513 | 85 | 58 | 4.0 | 11.0 | 0.00 | 0.00 | 0.00 | 51 | 1016.8 |
| 20260504180025 | 85 | 53 | 4.0 | 11.0 | 0.00 | 0.00 | 0.00 | 49 | 1016.8 |
| 20260504175512 | 85 | 57 | 6.0 | 12.0 | 0.00 | 0.00 | 0.00 | 51 | 1017.0 |
| 20260504174525 | 85 | 36 | 3.0 | 12.0 | 0.00 | 0.00 | 0.00 | 47 | 1017.2 |
| 20260504173508 | 84 | 75 | 4.0 | 11.0 | 0.00 | 0.00 | 0.00 | 48 | 1017.2 |
| 20260504172504 | 84 | 101 | 4.0 | 13.0 | 0.00 | 0.00 | 0.00 | 53 | 1017.2 |
| 20260504172004 | 84 | 80 | 3.0 | 13.0 | 0.00 | 0.00 | 0.00 | 51 | 1017.2 |
| 20260504171510 | 84 | 40 | 6.0 | 13.0 | 0.00 | 0.00 | 0.00 | 50 | 1017.2 |
| 20260504171005 | 84 | 11 | 7.0 | 13.0 | 0.00 | 0.00 | 0.00 | 46 | 1017.2 |
| 20260504170505 | 84 | 9 | 4.0 | 12.0 | 0.00 | 0.00 | 0.00 | 49 | 1017.4 |
| 20260504141007 | 76 | 16 | 7.0 | 14.0 | 0.00 | 0.00 | 0.00 | 63 | 1018.1 |
| 20260504130504 | 71 | 352 | 4.0 | 14.0 | 0.00 | 0.00 | 0.00 | 72 | 1017.8 |
| 20260504110506 | 62 | 342 | 1.0 | 5.0 | 0.00 | 0.00 | 0.00 | 88 | 1016.9 |
| 20260504100503 | 62 | 351 | 0.0 | 3.0 | 0.00 | 0.00 | 0.00 | 87 | 1016.5 |
| 20260504082003 | 65 | 5 | 1.0 | 3.0 | 0.00 | 0.04 | 0.00 | 82 | 1016.4 |
| 20260504081507 | 65 | 5 | 0.0 | 3.0 | 0.00 | 0.04 | 0.00 | 82 | 1016.4 |
| 20260504081004 | 65 | 5 | 0.0 | 3.0 | 0.00 | 0.04 | 0.00 | 82 | 1016.4 |
| 20260504080504 | 66 | 5 | 0.0 | 3.0 | 0.00 | 0.04 | 0.00 | 82 | 1016.4 |
| 20260504050507 | 67 | 26 | 1.0 | 3.0 | 0.00 | 0.08 | 0.00 | 79 | 1017.8 |
| 20260504050022 | 68 | 19 | 1.0 | 3.0 | 0.00 | 0.08 | 0.00 | 79 | 1017.8 |
| 20260504045504 | 68 | 42 | 1.0 | 3.0 | 0.00 | 0.08 | 0.00 | 79 | 1017.9 |
| 20260504045006 | 68 | 24 | 0.0 | 3.0 | 0.00 | 0.09 | 0.00 | 79 | 1018.0 |
| 20260504044527 | 68 | 352 | 0.0 | 4.0 | 0.00 | 0.09 | 0.00 | 79 | 1018.0 |
| 20260504044003 | 68 | 14 | 1.0 | 4.0 | 0.00 | 0.09 | 0.00 | 78 | 1018.0 |
| 20260504043503 | 68 | 44 | 1.0 | 3.0 | 0.00 | 0.09 | 0.00 | 78 | 1017.9 |
| 20260504043008 | 68 | 22 | 1.0 | 3.0 | 0.00 | 0.09 | 0.00 | 78 | 1018.1 |
| 20260504042504 | 68 | 352 | 1.0 | 4.0 | 0.00 | 0.09 | 0.00 | 78 | 1018.2 |
| 20260504042004 | 68 | 20 | 1.0 | 5.0 | 0.00 | 0.10 | 0.00 | 78 | 1018.3 |
| 20260504041516 | 69 | 5 | 2.0 | 5.0 | 0.00 | 0.10 | 0.00 | 77 | 1018.4 |
| 20260504041007 | 69 | 49 | 1.0 | 4.0 | 0.00 | 0.11 | 0.00 | 77 | 1018.3 |
| 20260504040507 | 69 | 46 | 1.0 | 4.0 | 0.00 | 0.11 | 0.00 | 77 | 1018.3 |
| 20260504040017 | 69 | 25 | 1.0 | 4.0 | 0.00 | 0.12 | 0.00 | 77 | 1018.1 |
| 20260504035510 | 69 | 59 | 0.0 | 2.0 | 0.00 | 0.12 | 0.12 | 76 | 1018.2 |
| 20260504035007 | 69 | 74 | 0.0 | 6.0 | 0.00 | 0.12 | 0.12 | 76 | 1018.3 |
| 20260504034510 | 69 | 78 | 2.0 | 8.0 | 0.00 | 0.12 | 0.12 | 76 | 1018.2 |
| 20260504034007 | 69 | 45 | 1.0 | 8.0 | 0.00 | 0.12 | 0.12 | 76 | 1018.2 |
| 20260504033507 | 69 | 71 | 2.0 | 8.0 | 0.00 | 0.12 | 0.12 | 76 | 1018.3 |
| 20260504033011 | 70 | 42 | 3.0 | 5.0 | 0.00 | 0.12 | 0.12 | 76 | 1018.2 |
| 20260504032503 | 70 | 16 | 0.0 | 6.0 | 0.00 | 0.12 | 0.12 | 76 | 1018.2 |
| 20260504032006 | 70 | 49 | 3.0 | 7.0 | 0.00 | 0.12 | 0.12 | 76 | 1018.1 |
| 20260504031514 | 70 | 55 | 2.0 | 7.0 | 0.00 | 0.12 | 0.12 | 76 | 1018.1 |
| 20260504031003 | 70 | 20 | 2.0 | 6.0 | 0.00 | 0.12 | 0.12 | 76 | 1018.1 |
| 20260504030507 | 70 | 34 | 0.0 | 4.0 | 0.00 | 0.12 | 0.12 | 76 | 1018.2 |
| 20260504030021 | 70 | 51 | 2.0 | 7.0 | 0.00 | 0.12 | 0.12 | 75 | 1018.1 |
| 20260504025507 | 70 | 13 | 2.0 | 8.0 | 0.00 | 0.12 | 0.12 | 76 | 1018.1 |
| 20260504025003 | 70 | 64 | 2.0 | 8.0 | 0.00 | 0.12 | 0.12 | 75 | 1018.3 |
| 20260504024520 | 70 | 29 | 4.0 | 8.0 | 0.00 | 0.12 | 0.12 | 76 | 1018.2 |
| 20260504024007 | 70 | 76 | 1.0 | 9.0 | 0.00 | 0.12 | 0.12 | 76 | 1018.1 |
| 20260504023504 | 70 | 73 | 2.0 | 9.0 | 0.00 | 0.12 | 0.12 | 75 | 1018.0 |
| 20260504023017 | 70 | 63 | 3.0 | 10.0 | 0.00 | 0.12 | 0.12 | 75 | 1018.1 |
| 20260504022509 | 70 | 71 | 3.0 | 10.0 | 0.00 | 0.12 | 0.12 | 75 | 1018.0 |
| 20260504022010 | 70 | 41 | 5.0 | 11.0 | 0.00 | 0.12 | 0.12 | 75 | 1017.9 |
| 20260504021508 | 70 | 42 | 3.0 | 11.0 | 0.00 | 0.12 | 0.12 | 75 | 1017.9 |
| 20260504021004 | 70 | 81 | 3.0 | 9.0 | 0.00 | 0.12 | 0.12 | 75 | 1017.8 |
| 20260504020503 | 70 | 82 | 4.0 | 9.0 | 0.00 | 0.12 | 0.12 | 75 | 1017.7 |
| 20260504020014 | 70 | 86 | 2.0 | 9.0 | 0.00 | 0.12 | 0.12 | 75 | 1017.7 |
| 20260504015506 | 70 | 76 | 2.0 | 9.0 | 0.00 | 0.12 | 0.12 | 75 | 1017.7 |
| 20260504015007 | 70 | 37 | 4.0 | 9.0 | 0.00 | 0.12 | 0.12 | 74 | 1017.6 |
| 20260504014522 | 71 | 20 | 3.0 | 10.0 | 0.00 | 0.12 | 0.12 | 74 | 1017.6 |
| 20260504014003 | 71 | 90 | 2.0 | 15.0 | 0.00 | 0.12 | 0.12 | 74 | 1017.8 |
| 20260504013506 | 71 | 349 | 3.0 | 15.0 | 0.00 | 0.12 | 0.12 | 73 | 1017.8 |
| 20260504013033 | 71 | 35 | 3.0 | 9.0 | 0.00 | 0.12 | 0.12 | 74 | 1017.6 |
| 20260504012510 | 71 | 76 | 3.0 | 9.0 | 0.00 | 0.12 | 0.12 | 73 | 1017.6 |
| 20260504012004 | 71 | 77 | 4.0 | 10.0 | 0.00 | 0.12 | 0.12 | 73 | 1017.4 |
| 20260504011523 | 71 | 21 | 3.0 | 10.0 | 0.00 | 0.12 | 0.12 | 73 | 1017.4 |
| 20260504011009 | 71 | 71 | 3.0 | 13.0 | 0.00 | 0.12 | 0.12 | 72 | 1017.5 |
| 20260504010503 | 71 | 80 | 3.0 | 13.0 | 0.00 | 0.12 | 0.12 | 72 | 1017.4 |
| 20260504010015 | 71 | 78 | 6.0 | 13.0 | 0.00 | 0.12 | 0.12 | 72 | 1017.4 |
| 20260504005504 | 71 | 63 | 4.0 | 11.0 | 0.00 | 0.12 | 0.12 | 72 | 1017.3 |
| 20260504005008 | 71 | 98 | 4.0 | 11.0 | 0.00 | 0.12 | 0.12 | 72 | 1017.1 |
| 20260504004515 | 71 | 78 | 5.0 | 11.0 | 0.00 | 0.12 | 0.12 | 71 | 1017.1 |
| 20260504004009 | 71 | 107 | 2.0 | 11.0 | 0.00 | 0.12 | 0.12 | 71 | 1017.1 |
| 20260504003510 | 72 | 61 | 4.0 | 11.0 | 0.00 | 0.12 | 0.12 | 72 | 1016.8 |
| 20260504003013 | 72 | 90 | 4.0 | 11.0 | 0.00 | 0.12 | 0.12 | 72 | 1016.8 |
| 20260504002508 | 72 | 72 | 3.0 | 9.0 | 0.00 | 0.12 | 0.12 | 73 | 1016.8 |
| 20260504002010 | 72 | 71 | 4.0 | 9.0 | 0.00 | 0.12 | 0.12 | 75 | 1016.8 |
| 20260504001528 | 73 | 73 | 3.0 | 10.0 | 0.00 | 0.12 | 0.12 | 72 | 1016.8 |
| 20260504001004 | 73 | 59 | 5.0 | 10.0 | 0.00 | 0.12 | 0.12 | 72 | 1016.7 |
| 20260504000506 | 73 | 32 | 4.0 | 10.0 | 0.00 | 0.12 | 0.12 | 71 | 1016.8 |
| 20260504000051 | 73 | 94 | 2.0 | 8.0 | 0.00 | 0.12 | 0.12 | 71 | 1016.6 |
| 20260503235512 | 74 | 49 | 3.0 | 10.0 | 0.00 | 0.12 | 0.12 | 71 | 1016.6 |
| 20260503235004 | 74 | 35 | 5.0 | 11.0 | 0.00 | 0.12 | 0.12 | 69 | 1016.6 |